Total_Precipitation_Accumulation
0.00 0.00 0.00 0.00 0.00 0.00 0.00 0.00 0.00 0.00 0.00 0.00 0.00 0.00 0.00 0.00 0.00 0.00 0.00 0.00 0.00 0.00 0.00 0.00 0.00 0.00 0.00 0.00 0.00 0.00 0.00 0.00 0.00 0.00 0.00 0.00 0.00 0.00 0.00 0.00 0.02 0.04 0.05 0.00 0.00 0.00 0.01 0.00 0.02 0.01 0.00 0.00 0.00 0.00 0.00 0.00 0.00 0.00 0.00 0.00 0.00 0.00 0.00 0.00 0.00 0.00 0.00 0.00 0.00 0.00 0.00 0.00 0.00 0.00 0.00 0.00 0.00 0.00 0.00 0.00 0.00 0.00 0.00 0.00 0.00 0.00
0.00 0.00 0.00 0.00 0.00 0.00 0.00 0.00 0.00 0.00 0.00 0.00 0.00 0.00 0.00 0.00 0.00 0.00 0.00 0.00 0.00 0.00 0.00 0.00 0.00 0.00 0.00 0.00 0.00 0.00 0.00 0.00 0.00 0.00 0.00 0.00 0.00 0.00 0.01 0.02 0.02 0.02 0.01 0.00 0.00 0.00 0.00 0.02 0.03 0.06 0.03 0.00 0.00 0.00 0.00 0.00 0.00 0.00 0.00 0.00 0.00 0.00 0.00 0.00 0.00 0.00 0.00 0.00 0.00 0.00 0.00 0.00 0.00 0.00 0.00 0.00 0.00 0.00 0.00 0.00 0.00 0.00 0.00 0.00 0.00 0.00
0.00 0.00 0.00 0.00 0.00 0.00 0.00 0.00 0.00 0.00 0.00 0.00 0.00 0.00 0.00 0.00 0.00 0.00 0.00 0.00 0.00 0.00 0.00 0.00 0.00 0.00 0.00 0.00 0.00 0.00 0.00 0.00 0.00 0.00 0.00 0.00 0.00 0.00 0.00 0.00 0.01 0.01 0.02 0.00 0.00 0.02 0.00 0.02 0.03 0.08 0.04 0.04 0.00 0.00 0.00 0.00 0.00 0.00 0.00 0.00 0.00 0.00 0.00 0.00 0.00 0.00 0.00 0.00 0.00 0.00 0.00 0.00 0.00 0.00 0.00 0.00 0.00 0.00 0.00 0.00 0.00 0.00 0.00 0.00 0.00 0.00
0.00 0.00 0.00 0.00 0.00 0.00 0.00 0.00 0.00 0.00 0.00 0.00 0.00 0.00 0.00 0.00 0.00 0.01 0.00 0.00 0.00 0.00 0.00 0.00 0.00 0.01 0.00 0.00 0.00 0.00 0.00 0.00 0.00 0.00 0.00 0.00 0.00 0.00 0.00 0.00 0.00 0.01 0.03 0.00 0.00 0.01 0.00 0.00 0.05 0.02 0.03 0.02 0.00 0.00 0.00 0.00 0.00 0.00 0.00 0.00 0.00 0.00 0.00 0.00 0.00 0.00 0.00 0.00 0.00 0.00 0.00 0.00 0.00 0.00 0.00 0.00 0.00 0.00 0.00 0.00 0.00 0.00 0.00 0.00 0.00 0.00
0.00 0.00 0.00 0.00 0.00 0.00 0.00 0.00 0.00 0.00 0.00 0.00 0.00 0.00 0.00 0.00 0.00 0.00 0.03 0.00 0.00 0.00 0.00 0.00 0.00 0.00 0.00 0.00 0.00 0.00 0.00 0.00 0.00 0.00 0.00 0.00 0.00 0.00 0.00 0.00 0.01 0.00 0.00 0.01 0.01 0.01 0.02 0.00 0.00 0.00 0.03 0.01 0.03 0.00 0.00 0.00 0.00 0.00 0.00 0.00 0.00 0.00 0.00 0.00 0.00 0.00 0.00 0.00 0.00 0.00 0.00 0.00 0.00 0.00 0.00 0.00 0.00 0.00 0.00 0.00 0.00 0.00 0.00 0.00 0.00 0.00
0.00 0.00 0.00 0.00 0.00 0.00 0.00 0.00 0.00 0.00 0.00 0.00 0.00 0.00 0.00 0.00 0.00 0.00 0.00 0.00 0.00 0.01 0.00 0.00 0.00 0.00 0.00 0.00 0.00 0.00 0.00 0.00 0.00 0.00 0.00 0.00 0.00 0.00 0.00 0.00 0.00 0.00 0.00 0.03 0.01 0.01 0.00 0.00 0.00 0.00 0.03 0.02 0.00 0.01 0.00 0.00 0.00 0.00 0.00 0.00 0.00 0.00 0.00 0.00 0.00 0.00 0.00 0.00 0.00 0.00 0.00 0.00 0.00 0.00 0.00 0.00 0.00 0.00 0.00 0.00 0.00 0.00 0.00 0.00 0.00 0.00
0.00 0.00 0.00 0.00 0.00 0.00 0.00 0.00 0.00 0.00 0.00 0.00 0.02 0.00 0.00 0.00 0.00 0.00 0.00 0.00 0.00 0.00 0.04 0.00 0.01 0.00 0.00 0.00 0.00 0.00 0.00 0.00 0.00 0.00 0.00 0.00 0.00 0.00 0.00 0.00 0.00 0.00 0.00 0.01 0.01 0.00 0.01 0.05 0.04 0.01 0.01 0.06 0.00 0.01 0.00 0.00 0.00 0.00 0.00 0.00 0.00 0.00 0.00 0.00 0.00 0.00 0.00 0.00 0.00 0.00 0.00 0.00 0.00 0.00 0.00 0.00 0.00 0.00 0.00 0.00 0.00 0.00 0.00 0.00 0.00 0.00
0.00 0.00 0.00 0.00 0.00 0.00 0.00 0.00 0.00 0.00 0.00 0.01 0.01 0.00 0.00 0.00 0.00 0.00 0.00 0.00 0.01 0.00 0.00 0.00 0.00 0.00 0.00 0.03 0.00 0.00 0.00 0.00 0.00 0.00 0.00 0.00 0.00 0.00 0.00 0.00 0.00 0.00 0.00 0.00 0.00 0.01 0.03 0.02 0.02 0.01 0.08 0.03 0.01 0.05 0.03 0.00 0.00 0.00 0.00 0.00 0.00 0.00 0.00 0.00 0.00 0.00 0.00 0.00 0.00 0.00 0.00 0.00 0.00 0.00 0.00 0.00 0.00 0.00 0.00 0.00 0.00 0.00 0.00 0.00 0.00 0.00
0.00 0.00 0.00 0.00 0.00 0.00 0.00 0.00 0.00 0.00 0.00 0.01 0.00 0.00 0.00 0.00 0.01 0.00 0.00 0.00 0.01 0.00 0.01 0.00 0.00 0.00 0.00 0.01 0.00 0.00 0.00 0.00 0.00 0.00 0.00 0.00 0.00 0.00 0.00 0.00 0.00 0.00 0.00 0.00 0.00 0.00 0.00 0.01 0.00 0.01 0.02 0.05 0.03 0.03 0.02 0.00 0.04 0.00 0.00 0.00 0.00 0.00 0.00 0.00 0.00 0.00 0.00 0.00 0.00 0.00 0.00 0.00 0.00 0.00 0.00 0.00 0.00 0.00 0.00 0.00 0.00 0.00 0.00 0.00 0.00 0.00
0.00 0.00 0.00 0.00 0.00 0.00 0.00 0.00 0.00 0.00 0.01 0.00 0.00 0.00 0.00 0.00 0.00 0.00 0.00 0.00 0.04 0.00 0.00 0.00 0.07 0.01 0.02 0.01 0.00 0.00 0.00 0.01 0.02 0.02 0.00 0.00 0.00 0.00 0.00 0.00 0.00 0.00 0.00 0.00 0.00 0.00 0.00 0.00 0.01 0.01 0.00 0.04 0.04 0.04 0.17 0.26 0.17 0.16 0.09 0.00 0.00 0.00 0.00 0.00 0.00 0.00 0.00 0.00 0.00 0.00 0.00 0.00 0.00 0.00 0.00 0.00 0.00 0.00 0.00 0.00 0.00 0.00 0.00 0.00 0.00 0.00
0.00 0.00 0.00 0.00 0.00 0.00 0.00 0.00 0.00 0.00 0.00 0.00 0.00 0.00 0.00 0.00 0.01 0.00 0.00 0.01 0.02 0.00 0.00 0.01 0.00 0.00 0.02 0.05 0.01 0.01 0.00 0.00 0.00 0.00 0.00 0.00 0.00 0.00 0.00 0.00 0.00 0.00 0.00 0.00 0.00 0.00 0.00 0.00 0.00 0.00 0.01 0.05 0.03 0.09 0.11 0.16 0.20 0.17 0.14 0.12 0.00 0.00 0.00 0.00 0.00 0.00 0.00 0.00 0.00 0.00 0.00 0.00 0.00 0.00 0.00 0.00 0.00 0.00 0.00 0.00 0.00 0.00 0.00 0.00 0.00 0.00
0.00 0.00 0.00 0.00 0.00 0.00 0.00 0.00 0.00 0.00 0.00 0.00 0.00 0.02 0.00 0.02 0.00 0.00 0.03 0.03 0.03 0.00 0.01 0.01 0.00 0.02 0.02 0.01 0.01 0.01 0.00 0.00 0.01 0.00 0.00 0.00 0.00 0.00 0.00 0.00 0.00 0.00 0.00 0.00 0.00 0.00 0.00 0.00 0.00 0.00 0.00 0.00 0.01 0.01 0.08 0.11 0.19 0.28 0.24 0.20 0.07 0.01 0.01 0.00 0.00 0.00 0.00 0.00 0.00 0.00 0.00 0.00 0.00 0.00 0.00 0.00 0.00 0.00 0.00 0.00 0.00 0.00 0.00 0.00 0.00 0.00
0.00 0.00 0.00 0.00 0.00 0.00 0.00 0.00 0.00 0.00 0.00 0.00 0.00 0.01 0.18 0.05 0.02 0.03 0.04 0.01 0.01 0.00 0.02 0.00 0.00 0.00 0.00 0.00 0.00 0.00 0.00 0.00 0.00 0.00 0.00 0.00 0.00 0.00 0.00 0.00 0.00 0.00 0.00 0.00 0.00 0.00 0.00 0.00 0.00 0.00 0.00 0.00 0.00 0.00 0.00 0.13 0.30 0.54 0.50 0.34 0.12 0.02 0.02 0.01 0.00 0.00 0.00 0.00 0.00 0.00 0.00 0.00 0.00 0.00 0.00 0.00 0.00 0.00 0.00 0.00 0.00 0.00 0.00 0.00 0.00 0.00
0.00 0.00 0.00 0.00 0.00 0.00 0.00 0.00 0.02 0.00 0.00 0.00 0.01 0.13 0.01 0.04 0.01 0.01 0.03 0.01 0.02 0.02 0.01 0.03 0.00 0.00 0.01 0.01 0.00 0.00 0.00 0.00 0.00 0.00 0.00 0.00 0.00 0.00 0.00 0.00 0.00 0.00 0.00 0.00 0.00 0.00 0.00 0.00 0.00 0.00 0.00 0.00 0.00 0.00 0.01 0.00 0.09 0.12 0.40 1.05 0.94 0.44 0.10 0.01 0.02 0.00 0.00 0.00 0.00 0.00 0.00 0.00 0.00 0.00 0.00 0.00 0.00 0.00 0.00 0.00 0.00 0.00 0.00 0.00 0.00 0.00
0.00 0.02 0.00 0.00 0.00 0.00 0.00 0.00 0.00 0.02 0.01 0.01 0.00 0.01 0.07 0.06 0.03 0.01 0.04 0.01 0.00 0.04 0.04 0.01 0.00 0.00 0.00 0.11 0.00 0.00 0.00 0.00 0.00 0.00 0.00 0.00 0.00 0.00 0.00 0.00 0.00 0.00 0.00 0.00 0.00 0.00 0.00 0.00 0.00 0.00 0.00 0.00 0.00 0.01 0.00 0.00 0.03 0.23 0.65 1.21 1.22 0.89 0.53 0.08 0.01 0.00 0.00 0.00 0.00 0.00 0.00 0.00 0.00 0.00 0.00 0.00 0.00 0.00 0.00 0.00 0.00 0.00 0.00 0.00 0.00 0.00
0.00 0.00 0.00 0.00 0.00 0.00 0.00 0.00 0.00 0.00 0.00 0.01 0.00 0.00 0.04 0.00 0.00 0.03 0.04 0.01 0.00 0.01 0.00 0.00 0.00 0.06 0.12 0.06 0.00 0.00 0.00 0.00 0.00 0.00 0.00 0.00 0.00 0.00 0.00 0.00 0.00 0.02 0.02 0.02 0.01 0.01 0.00 0.00 0.00 0.00 0.00 0.00 0.00 0.00 0.00 0.00 0.05 0.60 0.73 1.17 1.08 0.86 0.60 0.47 0.17 0.10 0.04 0.06 0.01 0.04 0.03 0.00 0.00 0.00 0.00 0.00 0.00 0.00 0.00 0.00 0.00 0.00 0.00 0.00 0.00 0.00
0.00 0.00 0.00 0.00 0.00 0.00 0.00 0.00 0.00 0.00 0.00 0.05 0.00 0.01 0.02 0.02 0.00 0.02 0.00 0.00 0.00 0.00 0.00 0.00 0.01 0.01 0.02 0.00 0.00 0.01 0.00 0.00 0.00 0.00 0.00 0.01 0.00 0.00 0.00 0.00 0.03 0.03 0.01 0.01 0.00 0.02 0.01 0.00 0.00 0.00 0.00 0.00 0.00 0.02 0.01 0.00 0.07 0.55 0.87 0.71 0.53 0.80 0.69 0.54 0.37 0.21 0.11 0.03 0.05 0.02 0.06 0.02 0.00 0.00 0.00 0.00 0.00 0.00 0.00 0.00 0.00 0.00 0.00 0.00 0.00 0.00
0.01 0.03 0.00 0.00 0.00 0.00 0.00 0.00 0.00 0.00 0.00 0.00 0.02 0.02 0.00 0.00 0.00 0.01 0.04 0.05 0.00 0.03 0.00 0.00 0.00 0.03 0.01 0.04 0.00 0.00 0.00 0.00 0.00 0.00 0.00 0.00 0.02 0.02 0.03 0.06 0.08 0.19 0.10 0.02 0.03 0.09 0.09 0.04 0.01 0.00 0.00 0.00 0.00 0.00 0.00 0.00 0.02 0.01 0.72 0.35 0.39 0.47 0.26 0.18 0.52 0.39 0.20 0.03 0.02 0.02 0.05 0.05 0.00 0.00 0.00 0.01 0.01 0.00 0.00 0.00 0.00 0.00 0.00 0.00 0.00 0.00
0.00 0.01 0.00 0.00 0.00 0.00 0.00 0.00 0.00 0.00 0.00 0.00 0.00 0.00 0.00 0.04 0.03 0.04 0.00 0.00 0.00 0.00 0.02 0.00 0.01 0.01 0.02 0.05 0.01 0.01 0.01 0.01 0.00 0.00 0.00 0.00 0.01 0.01 0.00 0.00 0.00 0.01 0.01 0.01 0.05 0.02 0.01 0.01 0.01 0.00 0.00 0.00 0.00 0.00 0.00 0.00 0.01 0.02 0.90 0.20 0.46 0.21 0.43 0.92 0.46 0.27 0.41 0.34 0.07 0.01 0.01 0.02 0.01 0.01 0.00 0.01 0.04 0.01 0.01 0.00 0.00 0.00 0.00 0.00 0.00 0.00
0.00 0.00 0.01 0.00 0.00 0.00 0.00 0.00 0.00 0.01 0.00 0.00 0.00 0.00 0.00 0.00 0.00 0.04 0.02 0.07 0.01 0.02 0.01 0.01 0.01 0.02 0.01 0.05 0.01 0.00 0.00 0.00 0.00 0.00 0.00 0.00 0.01 0.00 0.00 0.00 0.00 0.00 0.00 0.00 0.00 0.00 0.01 0.01 0.01 0.02 0.01 0.00 0.00 0.00 0.00 0.00 0.00 0.00 0.02 0.02 0.07 0.08 0.19 0.44 0.46 0.61 0.48 0.21 0.06 0.01 0.01 0.02 0.00 0.00 0.00 0.01 0.00 0.01 0.02 0.03 0.01 0.00 0.00 0.00 0.00 0.00
0.00 0.00 0.00 0.04 0.00 0.00 0.00 0.01 0.00 0.00 0.06 0.01 0.00 0.00 0.00 0.00 0.01 0.00 0.02 0.01 0.06 0.10 0.01 0.04 0.02 0.06 0.08 0.02 0.01 0.03 0.01 0.02 0.00 0.01 0.02 0.00 0.00 0.00 0.00 0.00 0.00 0.00 0.00 0.00 0.00 0.00 0.00 0.00 0.00 0.01 0.01 0.01 0.01 0.00 0.00 0.01 0.00 0.00 0.00 0.00 0.01 0.06 0.16 0.43 0.24 0.33 0.54 0.16 0.09 0.02 0.01 0.05 0.06 0.05 0.04 0.02 0.01 0.01 0.01 0.03 0.01 0.00 0.00 0.00 0.00 0.01
0.00 0.00 0.00 0.00 0.00 0.00 0.01 0.00 0.00 0.00 0.00 0.00 0.00 0.06 0.02 0.09 0.05 0.02 0.01 0.00 0.04 0.02 0.01 0.01 0.01 0.08 0.07 0.01 0.00 0.01 0.01 0.01 0.00 0.01 0.04 0.00 0.00 0.00 0.00 0.00 0.00 0.00 0.00 0.00 0.00 0.00 0.00 0.00 0.00 0.00 0.00 0.00 0.02 0.05 0.05 0.04 0.02 0.00 0.00 0.01 0.01 0.01 0.03 0.09 0.15 0.14 0.06 0.18 0.14 0.06 0.07 0.04 0.03 0.03 0.01 0.01 0.06 0.09 0.03 0.04 0.02 0.02 0.01 0.01 0.01 0.00
0.00 0.00 0.00 0.00 0.00 0.02 0.01 0.00 0.00 0.00 0.00 0.00 0.00 0.01 0.00 0.05 0.00 0.02 0.02 0.07 0.04 0.03 0.02 0.08 0.02 0.08 0.05 0.00 0.00 0.00 0.01 0.01 0.01 0.01 0.02 0.01 0.00 0.00 0.01 0.00 0.00 0.00 0.00 0.00 0.00 0.00 0.01 0.00 0.00 0.00 0.00 0.00 0.02 0.01 0.01 0.01 0.01 0.02 0.03 0.02 0.03 0.02 0.02 0.05 0.09 0.06 0.02 0.03 0.06 0.02 0.03 0.03 0.04 0.01 0.01 0.02 0.01 0.04 0.04 0.14 0.08 0.02 0.01 0.05 0.02 0.01
0.00 0.00 0.00 0.00 0.00 0.00 0.00 0.00 0.00 0.00 0.00 0.00 0.00 0.00 0.00 0.04 0.01 0.02 0.06 0.04 0.02 0.01 0.02 0.02 0.01 0.11 0.01 0.00 0.01 0.00 0.00 0.00 0.01 0.02 0.01 0.00 0.00 0.00 0.00 0.00 0.00 0.02 0.00 0.00 0.01 0.00 0.00 0.00 0.00 0.00 0.00 0.00 0.03 0.02 0.02 0.02 0.01 0.02 0.02 0.01 0.01 0.02 0.03 0.01 0.01 0.02 0.01 0.03 0.01 0.04 0.02 0.01 0.02 0.07 0.31 0.33 0.19 0.06 0.10 0.14 0.15 0.05 0.03 0.06 0.03 0.01
0.00 0.01 0.00 0.00 0.00 0.00 0.00 0.00 0.00 0.00 0.00 0.00 0.00 0.01 0.00 0.00 0.00 0.00 0.00 0.01 0.00 0.01 0.02 0.04 0.02 0.09 0.02 0.00 0.00 0.00 0.00 0.00 0.01 0.01 0.04 0.01 0.00 0.00 0.00 0.00 0.00 0.00 0.00 0.01 0.00 0.00 0.00 0.00 0.00 0.00 0.00 0.01 0.01 0.02 0.03 0.02 0.03 0.04 0.10 0.09 0.09 0.02 0.05 0.02 0.02 0.03 0.02 0.02 0.06 0.17 0.12 0.14 0.53 0.61 0.53 0.34 0.20 0.24 0.26 0.26 0.15 0.11 0.03 0.07 0.02 0.04
0.00 0.00 0.00 0.00 0.00 0.00 0.00 0.02 0.02 0.09 0.02 0.01 0.00 0.00 0.00 0.00 0.00 0.02 0.00 0.02 0.01 0.00 0.01 0.01 0.01 0.06 0.02 0.02 0.00 0.00 0.00 0.00 0.00 0.01 0.01 0.00 0.00 0.00 0.00 0.00 0.00 0.00 0.00 0.00 0.00 0.00 0.00 0.02 0.01 0.00 0.00 0.00 0.00 0.00 0.01 0.01 0.02 0.02 0.03 0.00 0.02 0.03 0.02 0.01 0.00 0.01 0.02 0.02 0.04 0.04 0.13 0.40 0.59 0.24 0.11 0.17 0.26 0.33 0.28 0.15 0.22 0.30 0.19 0.17 0.14 0.13
0.00 0.00 0.00 0.00 0.00 0.00 0.00 0.01 0.02 0.00 0.00 0.00 0.00 0.00 0.01 0.00 0.00 0.00 0.00 0.00 0.02 0.05 0.01 0.01 0.01 0.04 0.06 0.02 0.00 0.00 0.00 0.00 0.00 0.01 0.03 0.01 0.01 0.00 0.00 0.00 0.00 0.01 0.00 0.00 0.01 0.02 0.00 0.00 0.00 0.00 0.00 0.01 0.00 0.00 0.01 0.00 0.01 0.02 0.02 0.01 0.00 0.05 0.02 0.01 0.02 0.06 0.11 0.09 0.15 0.28 0.70 0.76 0.64 0.27 0.20 0.11 0.10 0.14 0.15 0.15 0.33 0.28 0.32 0.31 0.33 0.23
0.00 0.00 0.00 0.00 0.00 0.00 0.00 0.00 0.00 0.00 0.00 0.00 0.00 0.00 0.00 0.00 0.01 0.01 0.00 0.00 0.02 0.00 0.00 0.00 0.04 0.00 0.01 0.02 0.02 0.00 0.00 0.00 0.01 0.01 0.00 0.07 0.00 0.01 0.00 0.00 0.00 0.00 0.00 0.00 0.00 0.00 0.00 0.00 0.00 0.00 0.00 0.00 0.00 0.02 0.04 0.05 0.05 0.04 0.07 0.19 0.16 0.13 0.06 0.04 0.03 0.04 0.16 0.20 0.31 0.42 0.26 0.23 0.15 0.10 0.09 0.08 0.10 0.21 0.11 0.13 0.21 0.14 0.13 0.11 0.10 0.23
0.00 0.00 0.01 0.00 0.00 0.00 0.00 0.00 0.00 0.00 0.00 0.00 0.00 0.00 0.00 0.00 0.00 0.00 0.00 0.00 0.01 0.00 0.00 0.00 0.02 0.00 0.02 0.01 0.02 0.02 0.00 0.00 0.00 0.00 0.00 0.00 0.01 0.01 0.00 0.00 0.00 0.01 0.00 0.00 0.00 0.00 0.00 0.00 0.00 0.00 0.00 0.01 0.00 0.01 0.02 0.17 0.25 0.20 0.15 0.17 0.09 0.07 0.12 0.07 0.14 0.08 0.09 0.09 0.04 0.02 0.03 0.03 0.11 0.19 0.32 0.19 0.24 0.39 0.14 0.10 0.31 0.23 0.30 0.28 0.27 0.25
0.00 0.00 0.00 0.00 0.00 0.00 0.00 0.00 0.01 0.01 0.00 0.00 0.00 0.00 0.00 0.00 0.00 0.00 0.00 0.01 0.00 0.00 0.00 0.00 0.00 0.00 0.03 0.02 0.02 0.03 0.00 0.00 0.01 0.00 0.00 0.02 0.01 0.02 0.03 0.02 0.04 0.05 0.00 0.01 0.00 0.00 0.00 0.00 0.00 0.00 0.00 0.00 0.01 0.00 0.01 0.02 0.03 0.09 0.04 0.19 0.17 0.12 0.12 0.18 0.12 0.11 0.08 0.05 0.08 0.07 0.04 0.09 0.08 0.07 0.12 0.15 0.16 0.10 0.17 0.21 0.24 0.25 0.39 0.27 0.28 0.21
0.00 0.00 0.00 0.01 0.01 0.00 0.01 0.00 0.00 0.00 0.00 0.01 0.00 0.00 0.00 0.00 0.00 0.00 0.00 0.00 0.01 0.00 0.00 0.00 0.00 0.00 0.04 0.01 0.00 0.01 0.00 0.01 0.01 0.00 0.00 0.01 0.00 0.00 0.03 0.03 0.05 0.03 0.03 0.09 0.00 0.00 0.00 0.00 0.00 0.00 0.00 0.00 0.01 0.05 0.04 0.00 0.01 0.02 0.02 0.07 0.10 0.20 0.15 0.15 0.29 0.18 0.12 0.25 0.15 0.29 0.27 0.12 0.14 0.12 0.17 0.16 0.22 0.17 0.30 0.49 0.49 0.35 0.49 0.52 0.66 0.57
0.00 0.00 0.00 0.01 0.00 0.00 0.00 0.00 0.00 0.00 0.00 0.00 0.00 0.00 0.00 0.00 0.00 0.00 0.00 0.00 0.00 0.00 0.01 0.00 0.00 0.00 0.00 0.00 0.00 0.00 0.00 0.00 0.00 0.01 0.01 0.01 0.00 0.00 0.01 0.01 0.01 0.01 0.00 0.03 0.01 0.00 0.00 0.00 0.00 0.01 0.00 0.00 0.00 0.03 0.05 0.04 0.03 0.01 0.03 0.04 0.06 0.03 0.04 0.09 0.15 0.20 0.22 0.12 0.12 0.12 0.08 0.17 0.12 0.13 0.14 0.15 0.27 0.61 0.60 0.52 0.39 0.23 0.23 0.14 0.04 0.05
0.03 0.00 0.00 0.00 0.00 0.00 0.00 0.00 0.01 0.01 0.00 0.00 0.00 0.00 0.00 0.00 0.00 0.00 0.00 0.00 0.04 0.04 0.00 0.00 0.00 0.00 0.01 0.01 0.00 0.00 0.02 0.00 0.00 0.00 0.01 0.00 0.00 0.00 0.00 0.00 0.01 0.00 0.01 0.01 0.01 0.01 0.00 0.01 0.00 0.00 0.00 0.00 0.01 0.01 0.02 0.03 0.04 0.04 0.01 0.01 0.05 0.17 0.24 0.18 0.08 0.03 0.03 0.02 0.02 0.14 0.10 0.38 0.26 0.38 0.46 0.69 0.62 0.46 0.66 0.53 0.17 0.11 0.07 0.06 0.04 0.01
0.01 0.02 0.00 0.03 0.00 0.00 0.00 0.02 0.01 0.00 0.00 0.00 0.01 0.00 0.00 0.01 0.00 0.00 0.00 0.00 0.00 0.01 0.00 0.00 0.01 0.01 0.00 0.01 0.00 0.00 0.00 0.06 0.02 0.00 0.00 0.00 0.00 0.00 0.00 0.00 0.01 0.02 0.01 0.00 0.01 0.03 0.05 0.00 0.00 0.01 0.00 0.00 0.00 0.00 0.00 0.03 0.03 0.02 0.02 0.01 0.01 0.03 0.03 0.04 0.08 0.07 0.08 0.08 0.09 0.07 0.03 0.08 0.14 0.22 0.25 0.45 0.41 0.33 0.36 0.16 0.26 0.30 0.21 0.20 0.07 0.10
0.00 0.01 0.00 0.00 0.00 0.00 0.00 0.00 0.00 0.00 0.00 0.00 0.00 0.00 0.00 0.00 0.00 0.00 0.00 0.00 0.00 0.00 0.00 0.00 0.00 0.00 0.02 0.01 0.00 0.01 0.01 0.00 0.00 0.00 0.00 0.00 0.01 0.05 0.02 0.01 0.01 0.01 0.02 0.02 0.07 0.17 0.40 0.18 0.15 0.05 0.05 0.07 0.00 0.00 0.00 0.04 0.03 0.02 0.02 0.03 0.03 0.00 0.04 0.04 0.04 0.08 0.05 0.07 0.03 0.04 0.03 0.04 0.03 0.36 0.07 0.21 0.24 0.24 0.36 0.12 0.16 0.07 0.01 0.05 0.02 0.05
0.00 0.00 0.00 0.00 0.00 0.00 0.00 0.00 0.00 0.00 0.00 0.00 0.01 0.00 0.00 0.00 0.00 0.00 0.00 0.00 0.00 0.00 0.00 0.00 0.01 0.00 0.00 0.01 0.01 0.00 0.00 0.00 0.00 0.00 0.00 0.00 0.00 0.00 0.00 0.00 0.04 0.06 0.03 0.03 0.10 0.11 0.06 0.12 0.06 0.25 0.26 0.12 0.03 0.03 0.05 0.02 0.03 0.05 0.03 0.03 0.03 0.06 0.07 0.05 0.04 0.06 0.01 0.02 0.02 0.06 0.04 0.10 0.17 0.38 0.43 0.33 0.31 0.11 0.02 0.04 0.05 0.02 0.04 0.01 0.01 0.06
0.00 0.00 0.00 0.00 0.00 0.00 0.00 0.00 0.00 0.00 0.00 0.00 0.00 0.00 0.01 0.00 0.02 0.02 0.00 0.01 0.03 0.00 0.00 0.00 0.00 0.00 0.00 0.00 0.00 0.00 0.00 0.00 0.01 0.01 0.00 0.00 0.00 0.00 0.00 0.00 0.01 0.01 0.01 0.04 0.06 0.03 0.06 0.07 0.14 0.19 0.15 0.14 0.06 0.06 0.03 0.01 0.01 0.01 0.04 0.01 0.02 0.00 0.01 0.01 0.04 0.07 0.10 0.38 0.68 1.00 0.89 0.70 0.76 1.01 0.88 0.54 0.29 0.05 0.03 0.01 0.00 0.01 0.05 0.07 0.01 0.02
0.00 0.00 0.00 0.00 0.00 0.00 0.00 0.00 0.00 0.00 0.00 0.00 0.02 0.04 0.01 0.00 0.01 0.01 0.05 0.00 0.01 0.00 0.00 0.00 0.00 0.00 0.00 0.00 0.00 0.00 0.00 0.03 0.09 0.05 0.00 0.00 0.00 0.00 0.00 0.00 0.00 0.01 0.01 0.01 0.02 0.03 0.04 0.02 0.03 0.03 0.01 0.01 0.03 0.17 0.09 0.13 0.22 0.17 0.09 0.04 0.08 0.03 0.05 0.02 0.02 0.03 0.03 0.04 0.02 0.06 0.07 0.18 0.26 0.39 0.31 0.33 0.31 0.20 0.17 0.17 0.17 0.06 0.07 0.04 0.01 0.00
0.00 0.00 0.00 0.02 0.01 0.00 0.01 0.01 0.01 0.00 0.02 0.02 0.04 0.00 0.02 0.00 0.04 0.00 0.01 0.01 0.05 0.00 0.00 0.00 0.00 0.00 0.00 0.00 0.00 0.00 0.02 0.07 0.12 0.10 0.01 0.00 0.00 0.00 0.00 0.00 0.00 0.00 0.01 0.01 0.01 0.04 0.05 0.00 0.01 0.00 0.03 0.02 0.02 0.06 0.02 0.07 0.06 0.06 0.20 0.11 0.10 0.15 0.19 0.22 0.07 0.12 0.03 0.03 0.02 0.02 0.02 0.09 0.03 0.03 0.18 0.37 0.29 0.23 0.26 0.25 0.20 0.36 0.26 0.37 0.29 0.18
0.02 0.01 0.01 0.02 0.01 0.01 0.01 0.02 0.02 0.01 0.00 0.05 0.03 0.00 0.00 0.04 0.00 0.04 0.02 0.03 0.02 0.00 0.00 0.00 0.01 0.00 0.01 0.00 0.00 0.00 0.01 0.05 0.10 0.12 0.01 0.00 0.00 0.00 0.00 0.00 0.00 0.00 0.00 0.00 0.00 0.00 0.00 0.00 0.00 0.00 0.10 0.06 0.00 0.00 0.06 0.05 0.07 0.13 0.12 0.05 0.09 0.10 0.14 0.12 0.08 0.08 0.17 0.17 0.04 0.08 0.12 0.13 0.12 0.14 0.13 0.02 0.01 0.01 0.09 0.19 0.31 0.14 0.11 0.05 0.06 0.17
0.00 0.00 0.00 0.01 0.01 0.02 0.04 0.05 0.02 0.02 0.02 0.00 0.08 0.14 0.21 0.29 0.09 0.06 0.05 0.03 0.00 0.01 0.00 0.00 0.00 0.00 0.00 0.00 0.01 0.16 0.06 0.06 0.06 0.01 0.00 0.00 0.00 0.00 0.00 0.00 0.00 0.00 0.00 0.00 0.00 0.00 0.00 0.00 0.01 0.03 0.03 0.02 0.05 0.04 0.03 0.02 0.03 0.05 0.05 0.08 0.08 0.05 0.09 0.07 0.04 0.07 0.04 0.02 0.04 0.04 0.09 0.12 0.10 0.08 0.10 0.09 0.11 0.15 0.12 0.10 0.07 0.02 0.02 0.02 0.04 0.05
0.01 0.01 0.02 0.01 0.04 0.02 0.08 0.03 0.05 0.18 0.17 0.08 0.16 0.04 0.16 0.02 0.03 0.10 0.06 0.01 0.03 0.01 0.01 0.01 0.01 0.00 0.00 0.00 0.00 0.00 0.00 0.00 0.00 0.00 0.00 0.00 0.00 0.00 0.00 0.01 0.01 0.00 0.01 0.00 0.00 0.00 0.00 0.01 0.06 0.04 0.05 0.05 0.14 0.22 0.14 0.06 0.06 0.11 0.03 0.03 0.06 0.09 0.04 0.10 0.09 0.21 0.50 0.90 0.87 0.28 0.28 0.13 0.42 0.52 0.31 0.38 0.18 0.22 0.03 0.06 0.14 0.21 0.10 0.09 0.02 0.07
0.07 0.04 0.04 0.04 0.03 0.01 0.01 0.03 0.05 0.08 1.33 0.05 0.06 0.05 0.13 0.01 0.17 0.09 0.01 0.00 0.00 0.00 0.00 0.01 0.00 0.01 0.00 0.01 0.01 0.01 0.00 0.00 0.02 0.00 0.01 0.00 0.00 0.00 0.00 0.00 0.00 0.00 0.00 0.00 0.00 0.00 0.00 0.03 0.10 0.10 0.14 0.15 0.20 0.13 0.17 0.21 0.20 0.12 0.11 0.07 0.07 0.05 0.15 0.20 0.18 0.21 0.23 0.15 0.31 0.62 0.45 0.45 0.22 0.07 0.24 0.23 0.22 0.34 0.35 0.22 0.15 0.09 0.11 0.23 0.26 0.20
0.05 0.01 0.05 0.03 0.01 0.09 0.09 0.10 0.12 0.42 0.02 0.02 0.01 0.01 0.04 0.01 0.04 0.00 0.00 0.00 0.00 0.00 0.00 0.00 0.01 0.00 0.01 0.00 0.00 0.00 0.00 0.00 0.00 0.00 0.01 0.00 0.00 0.00 0.00 0.00 0.00 0.00 0.00 0.00 0.00 0.01 0.02 0.06 0.10 0.16 0.18 0.26 0.20 0.24 0.14 0.15 0.10 0.09 0.12 0.04 0.14 0.14 0.04 0.15 0.23 0.23 0.24 0.37 0.20 0.43 0.30 0.31 0.51 0.31 0.26 0.18 0.19 0.27 0.27 0.34 0.36 0.35 0.18 0.09 0.09 0.11
0.09 0.00 0.03 0.01 0.03 0.02 0.03 0.06 0.08 0.01 0.01 0.00 0.01 0.01 0.00 0.00 0.00 0.00 0.00 0.00 0.00 0.00 0.01 0.00 0.00 0.00 0.00 0.00 0.00 0.00 0.00 0.00 0.00 0.00 0.00 0.00 0.00 0.00 0.00 0.00 0.00 0.00 0.00 0.00 0.00 0.02 0.07 0.13 0.13 0.15 0.21 0.22 0.26 0.25 0.31 0.25 0.16 0.17 0.18 0.08 0.17 0.36 0.26 0.18 0.12 0.11 0.18 0.43 0.38 0.22 0.21 0.28 0.35 0.33 0.27 0.28 0.17 0.08 0.04 0.09 0.17 0.23 0.30 0.20 0.12 0.05
0.01 0.00 0.02 0.00 0.00 0.01 0.00 0.00 0.00 0.00 0.00 0.00 0.00 0.00 0.00 0.00 0.00 0.00 0.01 0.00 0.00 0.00 0.00 0.00 0.00 0.00 0.00 0.02 0.04 0.00 0.00 0.00 0.00 0.00 0.00 0.00 0.00 0.00 0.00 0.00 0.01 0.02 0.02 0.01 0.01 0.04 0.07 0.14 0.16 0.22 0.15 0.25 0.20 0.22 0.32 0.30 0.21 0.23 0.31 0.27 0.41 0.22 0.09 0.32 0.14 0.34 0.41 0.33 0.43 0.50 0.24 0.22 0.28 0.19 0.19 0.10 0.22 0.16 0.10 0.10 0.05 0.12 0.08 0.07 0.05 0.07
0.00 0.00 0.00 0.00 0.00 0.00 0.00 0.00 0.00 0.00 0.00 0.00 0.00 0.00 0.00 0.00 0.00 0.00 0.00 0.00 0.00 0.00 0.00 0.00 0.00 0.00 0.00 0.01 0.01 0.00 0.00 0.00 0.00 0.01 0.00 0.00 0.00 0.00 0.00 0.00 0.01 0.05 0.06 0.05 0.07 0.07 0.07 0.12 0.22 0.22 0.27 0.31 0.22 0.21 0.19 0.20 0.29 0.25 0.22 0.21 0.26 0.35 0.24 0.55 0.57 0.39 0.45 0.46 0.19 0.23 0.28 0.31 0.15 0.14 0.13 0.09 0.09 0.09 0.13 0.08 0.09 0.11 0.04 0.08 0.05 0.07
0.01 0.11 0.00 0.00 0.00 0.00 0.00 0.00 0.00 0.00 0.00 0.00 0.00 0.00 0.00 0.00 0.00 0.00 0.00 0.00 0.00 0.00 0.00 0.00 0.00 0.00 0.00 0.00 0.00 0.00 0.00 0.01 0.00 0.00 0.01 0.00 0.00 0.00 0.00 0.00 0.01 0.04 0.08 0.06 0.07 0.11 0.14 0.16 0.28 0.29 0.39 0.36 0.31 0.24 0.22 0.24 0.40 0.28 0.23 0.16 0.17 0.28 0.45 0.49 0.41 0.39 0.22 0.27 0.33 0.22 0.11 0.20 0.17 0.14 0.11 0.07 0.07 0.07 0.06 0.07 0.08 0.06 0.01 0.02 0.05 0.03
0.00 0.00 0.00 0.00 0.00 0.00 0.00 0.00 0.00 0.00 0.00 0.00 0.00 0.04 0.04 0.03 0.01 0.04 0.04 0.05 0.01 0.03 0.04 0.02 0.00 0.00 0.00 0.00 0.00 0.01 0.00 0.00 0.00 0.01 0.00 0.00 0.00 0.00 0.01 0.02 0.03 0.07 0.08 0.07 0.05 0.09 0.19 0.21 0.15 0.23 0.33 0.29 0.21 0.25 0.30 0.34 0.41 0.25 0.21 0.15 0.18 0.21 0.35 0.23 0.18 0.15 0.18 0.15 0.19 0.15 0.08 0.07 0.10 0.18 0.13 0.11 0.14 0.14 0.14 0.10 0.14 0.11 0.10 0.13 0.11 0.04
0.02 0.04 0.04 0.01 0.01 0.00 0.00 0.00 0.00 0.00 0.00 0.01 0.04 0.04 0.02 0.02 0.06 0.02 0.02 0.02 0.03 0.05 0.07 0.06 0.05 0.03 0.02 0.03 0.02 0.03 0.03 0.03 0.03 0.01 0.02 0.01 0.01 0.01 0.02 0.03 0.06 0.07 0.10 0.11 0.07 0.09 0.17 0.18 0.13 0.19 0.29 0.23 0.12 0.23 0.36 0.41 0.46 0.27 0.29 0.21 0.23 0.20 0.31 0.24 0.18 0.19 0.12 0.14 0.13 0.08 0.08 0.11 0.11 0.16 0.17 0.15 0.09 0.05 0.03 0.01 0.01 0.02 0.04 0.09 0.03 0.02
0.02 0.03 0.03 0.02 0.01 0.00 0.00 0.00 0.05 0.04 0.01 0.02 0.03 0.01 0.01 0.03 0.05 0.03 0.02 0.03 0.02 0.01 0.05 0.06 0.05 0.02 0.03 0.07 0.03 0.11 0.04 0.05 0.02 0.02 0.03 0.02 0.01 0.01 0.02 0.05 0.13 0.10 0.14 0.12 0.09 0.06 0.11 0.23 0.17 0.18 0.18 0.17 0.13 0.26 0.36 0.40 0.33 0.24 0.23 0.20 0.22 0.21 0.20 0.18 0.22 0.19 0.16 0.18 0.18 0.08 0.21 0.29 0.28 0.19 0.19 0.15 0.17 0.10 0.03 0.04 0.10 0.03 0.00 0.00 0.01 0.02